Location: Lecco
(45.8566°N, 9.3977°E)
Time: 00:37:45
(UTC+02:00)

ISS - Pass Details

Date: 18 July 2018
Orbit: 402 x 408 km, 51.6° (Epoch: 19 July)

Event Time Altitude Azimuth Distance (km) Brightness Sun altitude
Exits shadow 02:22:46 - 290° (WNW) 1,688 -0.6 -22.0°
Reaches altitude 10° 02:23:22 10° 295° (WNW) 1,468 -0.9 -21.9°
Maximum altitude 02:26:16 28° 357° (N) 791 -1.7 -21.8°
Drops below altitude 10° 02:29:12 10° 60° (ENE) 1,471 -0.4 -21.7°
Sets 02:31:28 0° 72° (ENE) 2,333 0.5 -21.6°
